STARLINK-4748, 53823

Orbit data source: Space-Track

STARLINK-4748, 53823 is a payload satellite owned by SpaceX/Seattle (US) in LEO that was launched on Mon, 19 Sep 2022 UTC via an FALCON 9 launch vehicle from the Air Force Eastern Test Range (AFETR). Payload-class satellites include a variety of spacecraft equipped with specific instruments for various scientific and technological missions. These include communications satellites like Starlink; space stations such as the ISS; scientific satellites like the Hubble; Earth observation satellites from companies like Planet Labs, Umbra, and HawkEye 360; GPS; miniature CubeSats for education and research; and military/defense satellites.

Loading next visibility...
Identifier
53823, 2022-114F
Orbit
LEO
Country
Flag of USUS
Related business
Manufacturer
SpaceX/Seattle
Mission
Operational Commercial Communications
Bus & Motor
STARLINK, Unknown motor
Mass
305 kg wet, ~290 kg dry
Launch date (UTC)
2022-09-19 (4 years ago)
Launch vehicle
FALCON 9
Launch site
Air Force Eastern Test Range (AFETR)
Object type
Payload
Rocket body
Debris
Shape & HBR
Box + 1 Pan, 10.1 m
Radar Cross Section
13.562 m², Large (>1 m²)

Expand to show TLE details & history
Last TLE update: 2 days ago

TLE from 2 days ago
0 STARLINK-4748
1 53823U 22114F   26171.23775156  .00000344  00000-0  39719-4 0  9998
2 53823  53.1606 158.6348 0001280  87.0806 273.0332 15.08837126208943
Epoch: 2026-06-20T05:42Z
TLE epoch observation values (Epoch: 2026-06-20T05:42:21.734Z)
Latitude
-0.00003°
Longitude
164.58897°
Altitude
540.597 km
Speed
7.593 km/s
True Right ascension
10h 34m 32s
True Declination
0° 00' 00"
Sunlit
Object was in daylight at epoch
Visualization orbit readout
Latitude
Unknown
Longitude
Unknown
Altitude
Unknown
Speed
Unknown
Apparent Right ascension
Unknown
Apparent Declination
Unknown
Sunlit
N/A
Visualization observer readout
Local Sidereal Time
21:31:28
Azimuth
Unknown
Elevation
Unknown
Doppler factor
Unknown
Orbital elements
Apogee altitude
540.892 km
Perigee altitude
539.121 km
Semi-major axis
6,918.143 km
Eccentricity
0.00013
Inclination
53.1606°
RAAN
158.6348°
Arg. of periapsis
87.0806°
True anomaly
273.01855°
Mean anomaly
273.0332°
Eccentric anomaly
273.02588°
Mean motion
3.77189 °/min
Orbital period
95.44 mins
BSTAR
0.000039719
Loading maneuver chart data...
Computing Atmospheric mass density...
Loading historical data...
Loading historical data...
Loading historical data...
Loading historical data...
Loading historical data...
Loading historical data...
Loading historical data...

Documentation

Showing up to 5 results
|